Location: Starlight Observatory
(38.4029°N, 85.8936°W)
Time: 00:37:38
(UTC-04:00)

Amateur Radio Satellites - All Passes

Search period start: 29 July 2014 00:07
Search period end: 30 July 2014 00:07
Location: Starlight Observatory, 38.4029°N, 85.8936°W

Satellite Date Start Highest point End Downlink Frequencies (MHz)
Time Altitude Azimuth
SO-50 29 Jul 00:21:20 00:22:04 10° 254° (WSW) 00:22:48 436.795 FM
ISS 29 Jul 00:28:21 00:31:40 81° 140° (SE) 00:35:01 145.800 FM
FUNcube-1 29 Jul 00:37:47 00:40:05 14° 267° (W) 00:42:22 145.950 - 145.970 MHz USB
UOSAT-12 29 Jul 00:39:44 00:44:28 82° 240° (WSW) 00:49:08 437.025 FM, 437.400 FM
Sapphire 29 Jul 00:44:22 00:48:23 22° 106° (ESE) 00:52:25 437.095 MHz 1200 baud AX-25 AFSK
RS-15 29 Jul 00:48:19 00:58:55 54° 249° (WSW) 01:09:56 29.354 - 29.394 USB, Beacon 29.352 USB
PCSat 29 Jul 01:16:26 01:21:34 47° 112° (ESE) 01:26:44 145.825 MHz
ISS 29 Jul 02:06:26 02:08:45 17° 337° (NNW) 02:11:03 145.800 FM
AO-40 29 Jul 02:10:07 04:08:48 18° 117° (ESE) 05:14:01 Beacon 2401.320
Sapphire 29 Jul 02:26:14 02:31:25 48° 303° (WNW) 02:36:40 437.095 MHz 1200 baud AX-25 AFSK
Oscar 19 29 Jul 02:51:31 02:56:22 40° 98° (E) 03:01:13 437.125 CW, 437.150 USB
PCSat 29 Jul 03:00:47 03:05:11 25° 309° (NW) 03:09:37 145.825 MHz
AO-Echo 29 Jul 03:09:07 03:13:22 27° 95° (E) 03:17:29 ?
Oscar 16 29 Jul 03:19:40 03:24:51 80° 103° (ESE) 03:30:02 437.025 USB, Beacon 2401.1428
OPAL 29 Jul 03:25:56 03:27:47 12° 59° (ENE) 03:29:38 ?
JAS-1B 29 Jul 03:28:23 03:36:31 34° 92° (E) 03:43:34 435.800 - 435.900 CW/SSB
ITAMSAT 1 29 Jul 03:40:30 03:45:35 53° 100° (E) 03:50:36 435.822 SSB
Oscar 10/S400 29 Jul 03:44:21 04:41:09 62° 205° (SSW) 13:04:51 145.825 - 145.975 CW/USB, Beacon 145.810 USB
TMSAT-1 29 Jul 03:58:14 04:02:24 23° 94° (E) 04:06:33 436.925 FM
AO-27 29 Jul 03:59:38 04:04:51 84° 104° (ESE) 04:10:01 436.795 MHz FM
Uribyol 2 29 Jul 03:59:54 04:05:05 88° 104° (ESE) 04:10:15 436.500 FM
Gurwin Techsat 1B 29 Jul 04:21:50 04:27:04 55° 100° (E) 04:32:14 435.225 FM
Oscar 19 29 Jul 04:31:26 04:35:27 23° 294° (WNW) 04:39:28 437.125 CW, 437.150 USB
AO-7 29 Jul 04:47:38 04:53:23 20° 93° (E) 04:59:05 29.400 - 29.500 MHz
AO-Echo 29 Jul 04:47:41 04:52:07 31° 292° (WNW) 04:56:24 ?
OPAL 29 Jul 05:01:03 05:05:59 79° 255° (WSW) 05:10:57 ?
Oscar 16 29 Jul 05:01:27 05:03:30 12° 299° (WNW) 05:05:33 437.025 USB, Beacon 2401.1428
Uosat F 29 Jul 05:06:17 05:10:07 22° 94° (E) 05:13:54 435.120 FM
JAS-1B 29 Jul 05:18:19 05:27:20 54° 293° (WNW) 05:35:05 435.800 - 435.900 CW/SSB
ITAMSAT 1 29 Jul 05:21:12 05:24:37 18° 296° (WNW) 05:28:02 435.822 SSB
ISS 29 Jul 05:22:48 05:24:33 13° 18° (NNE) 05:26:18 145.800 FM
KITSAT 1 29 Jul 05:28:48 05:33:01 15° 100° (E) 05:37:14 435.175 FM
TMSAT-1 29 Jul 05:37:31 05:42:26 40° 290° (WNW) 05:47:19 436.925 FM
AO-27 29 Jul 05:41:48 05:43:37 12° 300° (WNW) 05:45:25 436.795 MHz FM
Uribyol 2 29 Jul 05:42:21 05:43:47 11° 300° (WNW) 05:45:13 436.500 FM
PANSAT 29 Jul 05:49:37 05:51:40 14° 167° (SSE) 05:53:43 not established
Gurwin Techsat 1B 29 Jul 06:03:01 06:06:33 18° 296° (WNW) 06:10:05 435.225 FM
AO-7 29 Jul 06:38:35 06:46:55 79° 290° (WNW) 06:55:11 29.400 - 29.500 MHz
Uosat F 29 Jul 06:44:21 06:49:00 39° 290° (WNW) 06:53:38 435.120 FM
ISS 29 Jul 06:58:32 07:01:51 57° 37° (NE) 07:05:10 145.800 FM
MaSat-1 29 Jul 07:00:16 07:04:51 29° 56° (NE) 07:09:14 437.345 MHz
JAS-2 29 Jul 07:03:52 07:08:17 22° 91° (E) 07:12:24 435.800 - 435.900 CW/SSB, 435.910 FM
JAS-1B 29 Jul 07:12:24 07:15:27 12° 314° (NW) 07:18:25 435.800 - 435.900 CW/SSB
KITSAT 1 29 Jul 07:19:06 07:27:13 85° 117° (ESE) 07:35:21 435.175 FM
STRAND 1 29 Jul 07:24:13 07:29:16 59° 73° (ENE) 07:34:19 ?
Hamsat 29 Jul 07:27:06 07:31:18 50° 99° (E) 07:35:31 145.90 MHz
PANSAT 29 Jul 07:28:28 07:31:14 19° 180° (S) 07:33:59 not established
SO-67 29 Jul 07:51:44 07:52:29 11° 92° (E) 07:53:13 435.3500 MHz FM
Saudisat 1A 29 Jul 08:04:51 08:09:01 42° 116° (ESE) 08:13:12 436.775 MHz
AO-7 29 Jul 08:33:31 08:38:23 17° 309° (NW) 08:43:15 29.400 - 29.500 MHz
ISS 29 Jul 08:36:27 08:38:13 14° 232° (SW) 08:39:59 145.800 FM
MaSat-1 29 Jul 08:37:27 08:42:15 37° 254° (WSW) 08:46:46 437.345 MHz
JAS-2 29 Jul 08:48:08 08:53:41 43° 291° (WNW) 08:58:43 435.800 - 435.900 CW/SSB, 435.910 FM
Hamsat 29 Jul 09:04:39 09:06:50 14° 294° (WNW) 09:09:02 145.90 MHz
STRAND 1 29 Jul 09:05:54 09:08:48 15° 268° (W) 09:11:43 ?
PANSAT 29 Jul 09:08:49 09:10:47 14° 193° (SSW) 09:12:45 not established
HO-68 29 Jul 09:12:42 09:14:52 11° 88° (E) 09:17:02 435.675 MHz FM
KITSAT 1 29 Jul 09:17:17 09:23:36 24° 319° (NW) 09:29:57 435.175 FM
SO-67 29 Jul 09:22:29 09:25:43 37° 286° (WNW) 09:28:56 435.3500 MHz FM
Sapphire 29 Jul 09:33:33 09:36:46 16° 45° (NE) 09:39:59 437.095 MHz 1200 baud AX-25 AFSK
Saudisat 1A 29 Jul 09:45:24 09:48:46 21° 313° (NW) 09:52:10 436.775 MHz
PCSat 29 Jul 10:06:00 10:10:42 29° 52° (NE) 10:15:21 145.825 MHz
Oscar 11 29 Jul 10:28:59 10:31:33 15° 93° (E) 10:34:07 145.825 FM, Beacon 2401.500 USB
HO-68 29 Jul 10:56:22 11:03:33 79° 105° (ESE) 11:10:41 435.675 MHz FM
Sapphire 29 Jul 11:15:26 11:20:53 84° 244° (WSW) 11:26:18 437.095 MHz 1200 baud AX-25 AFSK
UKube-1 29 Jul 11:18:46 11:23:07 72° 285° (WNW) 11:27:26 145.840 MHz, 145.915 MHz
PCSat 29 Jul 11:49:10 11:54:10 39° 250° (WSW) 11:59:09 145.825 MHz
Oscar 11 29 Jul 12:03:49 12:07:55 42° 287° (WNW) 12:12:00 145.825 FM, Beacon 2401.500 USB
FUNcube-1 29 Jul 12:26:00 12:30:09 66° 285° (WNW) 12:34:20 145.950 - 145.970 MHz USB
HO-68 29 Jul 12:45:39 12:50:26 20° 303° (WNW) 12:55:12 435.675 MHz FM
SO-50 29 Jul 12:51:21 12:55:26 36° 114° (ESE) 12:59:35 436.795 FM
RS-15 29 Jul 12:59:34 13:08:35 29° 104° (ESE) 13:17:22 29.354 - 29.394 USB, Beacon 29.352 USB
Oscar 16 29 Jul 12:59:58 13:01:41 12° 60° (ENE) 13:03:25 437.025 USB, Beacon 2401.1428
KITSAT 1 29 Jul 13:22:35 13:23:11 10° 20° (NNE) 13:23:46 435.175 FM
Uribyol 2 29 Jul 13:40:07 13:42:39 14° 61° (ENE) 13:45:12 436.500 FM
AO-27 29 Jul 13:40:14 13:42:39 13° 61° (ENE) 13:45:04 436.795 MHz FM
Oscar 19 29 Jul 14:06:57 14:11:52 50° 72° (ENE) 14:16:48 437.125 CW, 437.150 USB
JAS-1B 29 Jul 14:09:47 14:17:11 29° 58° (ENE) 14:25:06 435.800 - 435.900 CW/SSB
AO-Echo 29 Jul 14:20:05 14:24:45 32° 69° (ENE) 14:29:26 ?
SO-50 29 Jul 14:32:25 14:36:04 24° 312° (NW) 14:39:47 436.795 FM
Oscar 16 29 Jul 14:35:11 14:40:18 83° 257° (WSW) 14:45:27 437.025 USB, Beacon 2401.1428
UOSAT-12 29 Jul 14:49:32 14:53:50 42° 115° (ESE) 14:58:15 437.025 FM, 437.400 FM
ITAMSAT 1 29 Jul 14:56:57 15:02:08 70° 74° (ENE) 15:07:20 435.822 SSB
RS-15 29 Jul 15:08:49 15:19:56 71° 304° (NW) 15:30:53 29.354 - 29.394 USB, Beacon 29.352 USB
KITSAT 1 29 Jul 15:14:26 15:21:37 34° 47° (NE) 15:28:44 435.175 FM
AO-27 29 Jul 15:16:17 15:21:30 76° 257° (WSW) 15:26:44 436.795 MHz FM
Uribyol 2 29 Jul 15:16:18 15:21:29 73° 257° (WSW) 15:26:42 436.500 FM
TMSAT-1 29 Jul 15:17:28 15:22:07 32° 68° (ENE) 15:26:46 436.925 FM
Gurwin Techsat 1B 29 Jul 15:41:24 15:46:41 75° 75° (ENE) 15:52:01 435.225 FM
AO-7 29 Jul 15:45:08 15:51:45 27° 57° (ENE) 15:58:23 29.400 - 29.500 MHz
Oscar 19 29 Jul 15:48:06 15:51:28 18° 267° (W) 15:54:51 437.125 CW, 437.150 USB
JAS-1B 29 Jul 15:57:54 16:06:39 74° 258° (WSW) 16:16:31 435.800 - 435.900 CW/SSB
AO-Echo 29 Jul 15:58:49 16:03:26 30° 264° (W) 16:08:05 ?
Uosat F 29 Jul 16:18:07 16:22:18 27° 67° (ENE) 16:26:28 435.120 FM
UOSAT-12 29 Jul 16:30:29 16:34:09 23° 313° (NW) 16:37:53 437.025 FM, 437.400 FM
Saudisat 1A 29 Jul 16:33:15 16:36:52 24° 49° (NE) 16:40:27 436.775 MHz
ITAMSAT 1 29 Jul 16:39:51 16:42:06 13° 269° (W) 16:44:20 435.822 SSB
TMSAT-1 29 Jul 16:57:23 17:01:58 30° 264° (W) 17:06:35 436.925 FM
KITSAT 1 29 Jul 17:09:31 17:17:23 58° 247° (WSW) 17:25:12 435.175 FM
OPAL 29 Jul 17:12:36 17:17:04 30° 99° (E) 17:21:34 ?
JAS-2 29 Jul 17:16:00 17:19:12 13° 57° (ENE) 17:22:18 435.800 - 435.900 CW/SSB, 435.910 FM
Gurwin Techsat 1B 29 Jul 17:25:09 17:27:11 12° 270° (W) 17:29:13 435.225 FM
RS-15 29 Jul 17:26:21 17:34:39 24° 331° (NNW) 17:42:59 29.354 - 29.394 USB, Beacon 29.352 USB
AO-7 29 Jul 17:35:32 17:43:50 69° 255° (WSW) 17:52:12 29.400 - 29.500 MHz
JAS-1B 29 Jul 17:54:24 17:58:47 14° 277° (W) 18:03:23 435.800 - 435.900 CW/SSB
Uosat F 29 Jul 17:56:24 18:00:55 33° 263° (W) 18:05:28 435.120 FM
Saudisat 1A 29 Jul 18:12:30 18:16:30 35° 246° (WSW) 18:20:28 436.775 MHz
Hamsat 29 Jul 18:19:26 18:23:02 29° 71° (ENE) 18:26:40 145.90 MHz
OPAL 29 Jul 18:51:28 18:55:52 30° 294° (WNW) 19:00:18 ?
JAS-2 29 Jul 18:55:19 19:03:05 69° 73° (ENE) 19:10:21 435.800 - 435.900 CW/SSB, 435.910 FM
AO-7 29 Jul 19:36:41 19:37:58 10° 272° (W) 19:39:15 29.400 - 29.500 MHz
STRAND 1 29 Jul 19:37:11 19:41:07 22° 94° (E) 19:45:01 ?
RS-15 29 Jul 19:46:35 19:52:53 16° 8° (N) 19:59:14 29.354 - 29.394 USB, Beacon 29.352 USB
SO-67 29 Jul 19:53:50 19:57:11 49° 75° (ENE) 20:00:34 435.3500 MHz FM
Hamsat 29 Jul 19:55:53 19:59:00 20° 266° (W) 20:02:10 145.90 MHz
JAS-2 29 Jul 20:42:32 20:48:25 23° 268° (W) 20:54:07 435.800 - 435.900 CW/SSB, 435.910 FM
MaSat-1 29 Jul 20:52:30 20:54:05 12° 98° (E) 20:55:46 437.345 MHz
STRAND 1 29 Jul 21:15:41 21:20:25 40° 290° (WNW) 21:25:07 ?
HO-68 29 Jul 21:23:01 21:29:53 51° 68° (ENE) 21:36:45 435.675 MHz FM
SO-50 29 Jul 21:24:15 21:28:14 26° 49° (NE) 21:32:15 436.795 FM
Oscar 11 29 Jul 21:24:38 21:25:39 11° 63° (ENE) 21:26:41 145.825 FM, Beacon 2401.500 USB
RS-15 29 Jul 21:59:57 22:09:54 37° 42° (NE) 22:20:05 29.354 - 29.394 USB, Beacon 29.352 USB
UKube-1 29 Jul 22:12:34 22:16:56 81° 76° (ENE) 22:21:19 145.840 MHz, 145.915 MHz
MaSat-1 29 Jul 22:26:40 22:30:37 54° 298° (WNW) 22:35:15 437.345 MHz
Oscar 11 29 Jul 22:56:59 23:01:15 66° 259° (W) 23:05:33 145.825 FM, Beacon 2401.500 USB
SO-50 29 Jul 23:04:28 23:08:54 38° 245° (WSW) 23:13:21 436.795 FM
HO-68 29 Jul 23:11:47 23:17:47 29° 264° (W) 23:23:49 435.675 MHz FM
UOSAT-12 29 Jul 23:20:41 23:24:42 27° 49° (NE) 23:28:41 437.025 FM, 437.400 FM
FUNcube-1 29 Jul 23:20:46 23:25:06 81° 76° (ENE) 23:29:21 145.950 - 145.970 MHz USB
ISS 29 Jul 23:39:46 23:42:55 41° 135° (SE) 23:46:06 145.800 FM
